Voltar ao catálogo

COSMOS 2251 DEB

AtivoLEO
NORAD 37118·DEBRIS·🇷🇺 Russia

Lançado Jun 16, 1993 de Plesetsk Cosmodrome

Loading…

Próximas Passagens (próximas 24 horas)

TLE

AtualizadoSource: Space-Track

Época: Sep 13, 2026, 08:54 UTC

1 37118U 93036BGQ 26256.37151057  .00007387  00000-0  86732-3 0  9995
2 37118  74.0105 259.8921 0008684 277.1985  82.8206 14.85062514696205

Acompanhe COSMOS 2251 DEB em tempo real com AllMySat

Download on the App Store